Location: Enborne
(51.3833°N, 1.3667°W)
Time: 02:15:56
(UTC+00:00)

Cosmos 1513 Rocket - Pass Details

Date: 18 September 2020
Orbit: 939 x 1009 km, 82.9° (Epoch: 30 October)

Event Time Altitude Azimuth Distance (km) Brightness Sun altitude
Rises 19:34:47 0° 183° (S) 3,691 7.4 -13.5°
Reaches altitude 10° 19:37:19 10° 182° (S) 2,737 6.7 -13.8°
Maximum altitude 19:43:34 79° 98° (E) 996 4.4 -14.7°
Drops below altitude 10° 19:49:46 10° 12° (NNE) 2,706 7.0 -15.6°
Sets 19:52:16 0° 11° (NNE) 3,647 7.7 -16.0°
